Weather in Novy Sofporog

Russia / Republic of Karelia     65°49′11″N   31°29′25″E
temp.,
°C
wind,
m/s
gust,
m/s
humid.,
%
clouds,
%
prec.,
mm/h
press.,
hPa
HPBL,
m
2 march, tue
tue200:00−1wnw7167832 0.0 9961047
03:00−2nw7157566 0.0 9991062
06:00−5nw6148270 0.0 1001749
09:00−6nw6158135 0.0 1004697
12:00−4nw712750 0.0 10061099
15:00−3nw511735 0.0 10081176
18:00−5wnw411810 0.0 1009358
21:00−4wnw5128942 0.0 1008425
3 march, wed
wed300:00−5wnw4128953 0.0 1006412
03:00−5wnw4128827 0.0 1007416
06:00−6wnw4118913 0.0 1005380
09:00−7wnw4109231 0.0 1005318
12:00−4wnw388383 0.0 1003493
15:00−3w368457 0.0 1002503
18:00−6wnw349038 0.0 100081
21:00−7wnw259569 0.3 999152
4 march, thu
thu400:00−7nw399496 0.0 999341
03:00−8nnw379597 0.3 1000285
06:00−7n3895100 0.8 1000492
09:00−8nnw51089100 1.3 1001585
12:00−8nnw498796 0.0 1002459
15:00−6nw5108586 0.0 1002583
18:00−8nw4108893 0.0 1001385
21:00−10wnw379568 0.1 1002188
5 march, fri
fri500:00−9nne51191100 0.1 1004625
03:00−14n379386 0.1 1007186
06:00−15nw22929 0.0 100923
09:00−13wnw248928 0.0 1010114
12:00−9nnw378593 0.0 1011452
15:00−7nnw498370 0.0 1011704
18:00−9nw368742 0.0 1011133
21:00−9wnw4109063 0.0 1011330
6 march, sat
sat600:00−11wnw369476 0.0 1011135
03:00−13wnw369138 0.0 1010113
06:00−14w349221 0.0 100977
09:00−14wsw359418 0.0 1006105
12:00−10sw3587100 0.0 1005251
15:00−8ssw368793 0.0 1001353
18:00−11s229382 0.0 100021
21:00−13sse229690 0.0 99923